Weather Roundup
Issued by NWS

Home | Current Version | Previous Version | Graphics & Text | Print | Product List | Glossary Off
Versions: 1 2 3 4 5 6 7 8 9 10 11 12 13 14 15 16 17 18 19 20 21 22 23 24 25 26 27 28 29 30 31 32 33 34 35 36 37 38 39 40 41 42 43 44 45 46 47 48 49 50

000
NZUS93 KARX 221459
HRRWXR

CURRENT HOURLY OBSERVATIONS ACROSS
MUCH OF THE UPPER MISSISSIPPI VALLEY
NATIONAL WEATHER SERVICE LA CROSSE WI
1000 AM CDT FRI AUG 22 2014


...SOUTHEAST MINNESOTA...


CITY           SKY/WX    TMP DP  RH WIND       PRES   REMARKS
ROCHESTER      CLOUDY    75  69  81 NE5       29.97R HAZE
ROCHESTER/MAYO CLOUDY    75  68  80 CALM      29.95R
WINONA         CLOUDY    77  72  83 CALM      29.92S
AUSTIN         CLOUDY    73  70  88 N6        29.95R FOG
ALBERT LEA     PTSUNNY   73  72  94 NE5       29.95S FOG
DODGE CENTER   CLOUDY    73  70  88 CALM      29.96R FOG
PRESTON        CLOUDY    72  72 100 N5        29.96R FOG
OWATONNA       PTSUNNY   73  70  88 NW9       29.95R HAZE
FARIBAULT      CLOUDY    75  66  73 N5        29.95R HAZE
$$

...ELSEWHERE IN MINNESOTA...


CITY           SKY/WX    TMP DP  RH WIND       PRES   REMARKS
MINNEAPOLIS    CLOUDY    71  67  87 N8        29.95R
INTNL FALLS    CLOUDY    68  63  84 NE6       29.99S
DULUTH         FOG       63  61  93 E3        29.98R VSB 1/2
RED WING       CLOUDY    75  70  83 N8        29.92R
REDWOOD FALLS  PTSUNNY   75  70  84 N5        29.96S
MANKATO        CLOUDY    73  66  78 N9        29.95R
WORTHINGTON    CLOUDY    72  14  11 NE10      30.00R
FAIRMONT       CLOUDY    72  68  88 N6        29.96R
$$

...SOUTHWEST WISCONSIN...


CITY           SKY/WX    TMP DP  RH WIND       PRES   REMARKS
LA CROSSE      CLOUDY    77  72  84 VRB3      29.92R HAZE
PRAIRIE DU CHI CLOUDY    74  71  91 CALM      29.92S FOG
BOSCOBEL       PTSUNNY   79  72  79 VRB5      29.93S
LONE ROCK      CLOUDY    79  73  82 CALM      29.94S
PLATTEVILLE    PTSUNNY   75  74  97 CALM      29.94F
FORT MC COY    CLOUDY    74  72  93 CALM      29.93S
CAMP DOUGLAS   CLOUDY    73  73 100 SE6       29.94S FOG
VIROQUA        CLOUDY    73  73 100 SE5       29.95R
WIS DELLS      CLOUDY    77  73  86 SE5       29.94S
$$

...ELSEWHERE IN WISCONSIN...


CITY           SKY/WX    TMP DP  RH WIND       PRES   REMARKS
MILWAUKEE      FOG       72  69  90 E8        29.96R VSB 1/4
MADISON        CLOUDY    76  72  87 SE3       29.95S FOG
GREEN BAY      CLOUDY    73  69  87 SE5       29.95S
EAU CLAIRE     CLOUDY    74  73  97 W5        29.91R
BLACK RVR FLS  FOG       73  73 100 CALM      29.93R VSB 3/4
MEDFORD        FOG       67  67 100 SE3       29.95S VSB 1/4
WAUSAU         CLOUDY    67  67 100 SE5       29.94S FOG
WIS RAPIDS     CLOUDY    75  71  87 S5        29.95S
MARSHFIELD     CLOUDY    73  71  93 SE7       29.94S FOG
RICE LAKE      CLOUDY    71  70  95 CALM      29.94S FOG
$$

...NORTHEAST IOWA...


CITY           SKY/WX    TMP DP  RH WIND       PRES   REMARKS
WATERLOO       CLOUDY    77  74  90 S5        29.92S FOG
DUBUQUE        CLOUDY    75  75 100 CALM      29.94S
DECORAH        CLOUDY    73  73 100 CALM      29.94R FOG
MASON CITY     MOSUNNY   77  72  84 N13       29.95S
CHARLES CITY   CLOUDY    73  73 100 CALM      29.94R FOG
OELWEIN        PTSUNNY   75  75 100 CALM      29.94S FOG
$$

...ELSEWHERE IN IOWA...


CITY           SKY/WX    TMP DP  RH WIND       PRES   REMARKS
DES MOINES     PTSUNNY   81  70  69 E3        29.93R
IOWA CITY      PTSUNNY   77  74  90 NW6       29.94R
FORT DODGE     CLOUDY    75  73  94 SE3       29.94S
MARSHALLTOWN   MOSUNNY   80  72  76 SW7       29.93S
CEDAR RAPIDS   CLOUDY    78  74  87 CALM      29.93R
$$

...NORTHERN ILLINOIS...


CITY           SKY/WX    TMP DP  RH WIND       PRES   REMARKS
CHICAGO-OHARE  CLOUDY    78  74  87 SW5       29.94R
DUPAGE         PTSUNNY   80  74  81 SW9       29.94S
CHICAGO-MIDWAY CLOUDY    79  75  87 S7        29.95R
MOLINE         CLOUDY    73  70  90 CALM      29.95R
ROCKFORD       CLOUDY    78  73  84 SW8       29.97R
STERLING       CLOUDY    73  70  88 W9G16     29.97R
PEORIA         LGT RAIN  74  71  91 SE5       29.99R FOG
$$

NOTE: "FAIR" INDICATES FEW OR NO CLOUDS BELOW 12,000 FEET WITH NO
SIGNIFICANT WEATHER AND/OR OBSTRUCTIONS TO VISIBILITY. WIND
SPEEDS ARE IN MILES-PER-HOUR.



USA.gov is the U.S. government's official web portal to all federal, state and local government web resources and services.